Location: Dürabuch
(48.2640°N, 11.2185°E)
Time: 03:36:07
(UTC+00:00)

COSMOS 2428 - Pass Details

Date: 23 May 2024
Orbit: 844 x 856 km, 70.9° (Epoch: 13 June)

Event Time Altitude Azimuth Distance (km) Brightness Sun altitude
Rises 01:57:23 0° 335° (NNW) 3,415 6.2 -11.8°
Reaches altitude 10° 01:59:59 10° 342° (NNW) 2,477 5.6 -11.5°
Maximum altitude 02:05:21 41° 53° (NE) 1,205 4.2 -10.9°
Drops below altitude 10° 02:10:42 10° 123° (ESE) 2,469 5.2 -10.3°
Sets 02:13:17 0° 131° (SE) 3,403 5.9 -10.1°
